Time,TemperatureF,DewpointF,PressureIn,WindDirection,WindDirectionDegrees,WindSpeedMPH,WindSpeedGustMPH,Humidity,HourlyPrecipIn,Conditions,Clouds,dailyrainin,SolarRadiationWatts/m^2,SoftwareType,DateUTC
2013-07-03 00:11:00,73.0,69.0,-100.00,North,5,4.0,7.0,88,0.00,,,0.00,0.000000,,2013-07-03 05:11:00,
2013-07-03 00:23:00,73.0,69.0,-100.00,North,5,4.0,7.0,88,0.00,,,0.00,0.000000,,2013-07-03 05:23:00,
2013-07-03 00:38:00,73.0,69.0,-100.00,North,5,4.0,7.0,88,0.00,,,0.00,0.000000,,2013-07-03 05:38:00,
2013-07-03 00:47:00,73.0,69.0,-100.00,North,5,4.0,7.0,88,0.00,,,0.00,0.000000,,2013-07-03 05:47:00,
2013-07-03 01:14:00,73.0,70.0,-100.00,NNE,19,1.0,6.0,89,0.00,,,0.00,0.000000,,2013-07-03 06:14:00,
2013-07-03 01:24:00,73.0,70.0,-100.00,NNE,19,1.0,6.0,89,0.00,,,0.00,0.000000,,2013-07-03 06:24:00,
2013-07-03 01:39:00,73.0,70.0,-100.00,NNE,19,1.0,6.0,89,0.00,,,0.00,0.000000,,2013-07-03 06:39:00,
2013-07-03 01:48:00,73.0,70.0,-100.00,NNE,19,1.0,6.0,89,0.00,,,0.00,0.000000,,2013-07-03 06:48:00,
2013-07-03 01:50:00,73.0,69.0,-100.00,North,10,3.0,4.0,88,0.00,,,0.00,0.000000,,2013-07-03 06:50:00,
2013-07-03 02:15:00,73.0,69.0,-100.00,North,10,3.0,4.0,88,0.00,,,0.00,0.000000,,2013-07-03 07:15:00,
2013-07-03 02:47:00,73.0,69.0,-100.00,North,10,3.0,4.0,88,0.00,,,0.00,0.000000,,2013-07-03 07:47:00,
2013-07-03 02:50:00,73.0,70.0,-100.00,NE,35,3.0,5.0,90,0.01,,,-99.99,0.000000,,2013-07-03 07:50:00,
2013-07-03 03:25:00,73.0,70.0,-100.00,NE,35,3.0,5.0,90,0.01,,,-99.99,0.000000,,2013-07-03 08:25:00,
2013-07-03 03:45:00,73.0,70.0,-100.00,NE,35,3.0,5.0,90,0.01,,,-99.99,0.000000,,2013-07-03 08:45:00,
2013-07-03 03:50:00,72.0,70.0,-100.00,NE,38,2.0,6.0,94,0.00,,,0.01,0.000000,,2013-07-03 08:50:00,
2013-07-03 04:16:00,72.0,70.0,-100.00,NE,38,2.0,6.0,94,0.00,,,0.01,0.000000,,2013-07-03 09:16:00,
2013-07-03 04:24:00,72.0,70.0,-100.00,NE,38,2.0,6.0,94,0.00,,,0.01,0.000000,,2013-07-03 09:24:00,
2013-07-03 04:46:00,72.0,70.0,-100.00,NE,38,2.0,6.0,94,0.00,,,0.01,0.000000,,2013-07-03 09:46:00,
2013-07-03 05:15:00,72.0,70.0,-100.00,ENE,74,3.0,5.0,94,0.00,,,0.01,0.000000,,2013-07-03 10:15:00,
2013-07-03 05:28:00,72.0,70.0,-100.00,ENE,74,3.0,5.0,94,0.00,,,0.01,0.000000,,2013-07-03 10:28:00,
2013-07-03 05:36:00,72.0,70.0,-100.00,ENE,74,3.0,5.0,94,0.00,,,0.01,0.000000,,2013-07-03 10:36:00,
2013-07-03 05:45:00,72.0,70.0,-100.00,ENE,74,3.0,5.0,94,0.00,,,0.01,0.000000,,2013-07-03 10:45:00,
2013-07-03 05:50:00,72.0,71.0,-100.00,NW,310,3.0,8.0,96,0.14,,,0.15,0.000000,,2013-07-03 10:50:00,
2013-07-03 06:25:00,72.0,71.0,-100.00,NW,310,3.0,8.0,96,0.14,,,0.15,0.000000,,2013-07-03 11:25:00,
2013-07-03 06:38:00,72.0,71.0,-100.00,NW,310,3.0,8.0,96,0.14,,,0.15,0.000000,,2013-07-03 11:38:00,
2013-07-03 06:43:00,72.0,71.0,-100.00,NW,310,3.0,8.0,96,0.14,,,0.15,0.000000,,2013-07-03 11:43:00,
2013-07-03 06:50:00,72.0,71.0,-100.00,NNW,338,5.0,9.0,97,0.16,,,0.31,2.000000,,2013-07-03 11:50:00,
2013-07-03 07:16:00,72.0,71.0,-100.00,NNW,338,5.0,9.0,97,0.16,,,0.31,2.000000,,2013-07-03 12:16:00,
2013-07-03 07:25:00,72.0,71.0,-100.00,NNW,338,5.0,9.0,97,0.16,,,0.31,2.000000,,2013-07-03 12:25:00,
2013-07-03 07:37:00,72.0,71.0,-100.00,NNW,338,5.0,9.0,97,0.16,,,0.31,2.000000,,2013-07-03 12:37:00,
2013-07-03 07:43:00,72.0,71.0,-100.00,NNW,338,5.0,9.0,97,0.16,,,0.31,2.000000,,2013-07-03 12:43:00,
2013-07-03 07:50:00,72.0,70.0,-100.00,NNE,28,3.0,7.0,95,0.01,,,0.32,39.000000,,2013-07-03 12:50:00,
2013-07-03 08:25:00,72.0,70.0,-100.00,NNE,28,3.0,7.0,95,0.01,,,0.32,39.000000,,2013-07-03 13:25:00,
2013-07-03 08:35:00,72.0,70.0,-100.00,NNE,28,3.0,7.0,95,0.01,,,0.32,39.000000,,2013-07-03 13:35:00,
2013-07-03 08:47:00,72.0,70.0,-100.00,NNE,28,3.0,7.0,95,0.01,,,0.32,39.000000,,2013-07-03 13:47:00,
2013-07-03 08:50:00,72.0,70.0,-100.00,NE,38,2.0,8.0,95,0.01,,,0.33,43.000000,,2013-07-03 13:50:00,
2013-07-03 09:26:00,72.0,70.0,-100.00,NE,38,2.0,8.0,95,0.01,,,0.33,43.000000,,2013-07-03 14:26:00,
2013-07-03 09:46:00,72.0,70.0,-100.00,NE,38,2.0,8.0,95,0.01,,,0.33,43.000000,,2013-07-03 14:46:00,
2013-07-03 09:50:00,73.0,72.0,-100.00,NNE,23,3.0,7.0,97,0.06,,,0.39,34.000000,,2013-07-03 14:50:00,
2013-07-03 10:14:00,73.0,72.0,-100.00,NNE,23,3.0,7.0,97,0.06,,,0.39,34.000000,,2013-07-03 15:14:00,
2013-07-03 10:26:00,73.0,72.0,-100.00,NNE,23,3.0,7.0,97,0.06,,,0.39,34.000000,,2013-07-03 15:26:00,
2013-07-03 10:37:00,73.0,72.0,-100.00,NNE,23,3.0,7.0,97,0.06,,,0.39,34.000000,,2013-07-03 15:37:00,
2013-07-03 10:50:00,74.0,72.0,-100.00,NNE,18,5.0,9.0,92,0.02,,,0.41,161.000000,,2013-07-03 15:50:00,
2013-07-03 11:23:00,74.0,72.0,-100.00,NNE,18,5.0,9.0,92,0.02,,,0.41,161.000000,,2013-07-03 16:23:00,
2013-07-03 11:38:00,74.0,72.0,-100.00,NNE,18,5.0,9.0,92,0.02,,,0.41,161.000000,,2013-07-03 16:38:00,
2013-07-03 11:46:00,74.0,72.0,-100.00,NNE,18,5.0,9.0,92,0.02,,,0.41,161.000000,,2013-07-03 16:46:00,
2013-07-03 11:50:00,77.0,69.0,-100.00,NNE,30,5.0,10.0,77,0.00,,,0.41,382.000000,,2013-07-03 16:50:00,
2013-07-03 12:16:00,77.0,69.0,-100.00,NNE,30,5.0,10.0,77,0.00,,,0.41,382.000000,,2013-07-03 17:16:00,
2013-07-03 12:25:00,77.0,69.0,-100.00,NNE,30,5.0,10.0,77,0.00,,,0.41,382.000000,,2013-07-03 17:25:00,
2013-07-03 12:40:00,77.0,69.0,-100.00,NNE,30,5.0,10.0,77,0.00,,,0.41,382.000000,,2013-07-03 17:40:00,
2013-07-03 12:46:00,77.0,69.0,-100.00,NNE,30,5.0,10.0,77,0.00,,,0.41,382.000000,,2013-07-03 17:46:00,
2013-07-03 12:50:00,79.0,68.0,-100.00,NNE,26,7.0,11.0,70,0.01,,,0.42,459.000000,,2013-07-03 17:50:00,
2013-07-03 13:15:00,79.0,68.0,-100.00,NNE,26,7.0,11.0,70,0.01,,,0.42,459.000000,,2013-07-03 18:15:00,
2013-07-03 13:25:00,79.0,68.0,-100.00,NNE,26,7.0,11.0,70,0.01,,,0.42,459.000000,,2013-07-03 18:25:00,
2013-07-03 13:36:00,79.0,68.0,-100.00,NNE,26,7.0,11.0,70,0.01,,,0.42,459.000000,,2013-07-03 18:36:00,
2013-07-03 13:50:00,82.0,69.0,-100.00,NNE,12,8.0,15.0,66,0.00,,,0.42,688.000000,,2013-07-03 18:50:00,
2013-07-03 14:29:00,82.0,69.0,-100.00,NNE,12,8.0,15.0,66,0.00,,,0.42,688.000000,,2013-07-03 19:29:00,
2013-07-03 14:37:00,82.0,69.0,-100.00,NNE,12,8.0,15.0,66,0.00,,,0.42,688.000000,,2013-07-03 19:37:00,
2013-07-03 14:46:00,82.0,69.0,-100.00,NNE,12,8.0,15.0,66,0.00,,,0.42,688.000000,,2013-07-03 19:46:00,
2013-07-03 14:50:00,85.0,71.0,-100.00,NNE,30,6.0,14.0,64,0.00,,,0.42,641.000000,,2013-07-03 19:50:00,
2013-07-03 15:24:00,85.0,71.0,-100.00,NNE,30,6.0,14.0,64,0.00,,,0.42,641.000000,,2013-07-03 20:24:00,
2013-07-03 15:37:00,85.0,71.0,-100.00,NNE,30,6.0,14.0,64,0.00,,,0.42,641.000000,,2013-07-03 20:37:00,
2013-07-03 15:44:00,85.0,71.0,-100.00,NNE,30,6.0,14.0,64,0.00,,,0.42,641.000000,,2013-07-03 20:44:00,
2013-07-03 15:50:00,87.0,72.0,-100.00,NNE,31,3.0,13.0,61,0.00,,,0.42,702.000000,,2013-07-03 20:50:00,
2013-07-03 16:13:00,87.0,72.0,-100.00,NNE,31,3.0,13.0,61,0.00,,,0.42,702.000000,,2013-07-03 21:13:00,
2013-07-03 16:26:00,87.0,72.0,-100.00,NNE,31,3.0,13.0,61,0.00,,,0.42,702.000000,,2013-07-03 21:26:00,
2013-07-03 16:35:00,87.0,72.0,-100.00,NNE,31,3.0,13.0,61,0.00,,,0.42,702.000000,,2013-07-03 21:35:00,
2013-07-03 16:44:00,87.0,72.0,-100.00,NNE,31,3.0,13.0,61,0.00,,,0.42,702.000000,,2013-07-03 21:44:00,
2013-07-03 16:50:00,84.0,70.0,-100.00,ENE,62,7.0,17.0,63,0.00,,,0.42,475.000000,,2013-07-03 21:50:00,
2013-07-03 17:14:00,84.0,70.0,-100.00,ENE,62,7.0,17.0,63,0.00,,,0.42,475.000000,,2013-07-03 22:14:00,
2013-07-03 17:26:00,84.0,70.0,-100.00,ENE,62,7.0,17.0,63,0.00,,,0.42,475.000000,,2013-07-03 22:26:00,
2013-07-03 17:37:00,84.0,70.0,-100.00,ENE,62,7.0,17.0,63,0.00,,,0.42,475.000000,,2013-07-03 22:37:00,
2013-07-03 17:45:00,84.0,70.0,-100.00,ENE,62,7.0,17.0,63,0.00,,,0.42,475.000000,,2013-07-03 22:45:00,
2013-07-03 17:50:00,80.0,73.0,-100.00,ESE,123,7.0,19.0,78,0.00,,,0.42,179.000000,,2013-07-03 22:50:00,
2013-07-03 18:14:00,80.0,73.0,-100.00,ESE,123,7.0,19.0,78,0.00,,,0.42,179.000000,,2013-07-03 23:14:00,
2013-07-03 18:24:00,80.0,73.0,-100.00,ESE,123,7.0,19.0,78,0.00,,,0.42,179.000000,,2013-07-03 23:24:00,
2013-07-03 18:44:00,80.0,73.0,-100.00,ESE,123,7.0,19.0,78,0.00,,,0.42,179.000000,,2013-07-03 23:44:00,
2013-07-03 18:50:00,77.0,74.0,-100.00,NE,52,4.0,12.0,90,0.02,,,0.44,72.000000,,2013-07-03 23:50:00,
2013-07-03 19:25:00,77.0,74.0,-100.00,NE,52,4.0,12.0,90,0.02,,,0.44,72.000000,,2013-07-04 00:25:00,
2013-07-03 19:47:00,77.0,74.0,-100.00,NE,52,4.0,12.0,90,0.02,,,0.44,72.000000,,2013-07-04 00:47:00,
2013-07-03 19:50:00,76.0,73.0,-100.00,NE,35,4.0,6.0,89,0.00,,,0.44,17.000000,,2013-07-04 00:50:00,
2013-07-03 20:15:00,76.0,73.0,-100.00,NE,35,4.0,6.0,89,0.00,,,0.44,17.000000,,2013-07-04 01:15:00,
2013-07-03 20:23:00,76.0,73.0,-100.00,NE,35,4.0,6.0,89,0.00,,,0.44,17.000000,,2013-07-04 01:23:00,
2013-07-03 20:37:00,76.0,73.0,-100.00,NE,35,4.0,6.0,89,0.00,,,0.44,17.000000,,2013-07-04 01:37:00,
2013-07-03 20:43:00,76.0,73.0,-100.00,NE,35,4.0,6.0,89,0.00,,,0.44,17.000000,,2013-07-04 01:43:00,
2013-07-03 20:50:00,75.0,72.0,-100.00,NE,48,5.0,13.0,91,0.03,,,0.47,1.000000,,2013-07-04 01:50:00,
2013-07-03 21:14:00,75.0,72.0,-100.00,NE,48,5.0,13.0,91,0.03,,,0.47,1.000000,,2013-07-04 02:14:00,
2013-07-03 21:23:00,75.0,72.0,-100.00,NE,48,5.0,13.0,91,0.03,,,0.47,1.000000,,2013-07-04 02:23:00,
2013-07-03 21:47:00,75.0,72.0,-100.00,NE,48,5.0,13.0,91,0.03,,,0.47,1.000000,,2013-07-04 02:47:00,
2013-07-03 21:50:00,73.0,72.0,-100.00,North,11,3.0,6.0,96,0.02,,,0.49,0.000000,,2013-07-04 02:50:00,
2013-07-03 22:14:00,73.0,72.0,-100.00,North,11,3.0,6.0,96,0.02,,,0.49,0.000000,,2013-07-04 03:14:00,
2013-07-03 22:27:00,73.0,72.0,-100.00,North,11,3.0,6.0,96,0.02,,,0.49,0.000000,,2013-07-04 03:27:00,
2013-07-03 22:35:00,73.0,72.0,-100.00,North,11,3.0,6.0,96,0.02,,,0.49,0.000000,,2013-07-04 03:35:00,
2013-07-03 22:46:00,73.0,72.0,-100.00,North,11,3.0,6.0,96,0.02,,,0.49,0.000000,,2013-07-04 03:46:00,
2013-07-03 22:50:00,72.0,70.0,-100.00,NE,34,5.0,8.0,95,0.00,,,0.49,0.000000,,2013-07-04 03:50:00,
2013-07-03 23:11:00,72.0,70.0,-100.00,NE,34,5.0,8.0,95,0.00,,,0.49,0.000000,,2013-07-04 04:11:00,
2013-07-03 23:22:00,72.0,70.0,-100.00,NE,34,5.0,8.0,95,0.00,,,0.49,0.000000,,2013-07-04 04:22:00,
2013-07-03 23:33:00,72.0,70.0,-100.00,NE,34,5.0,8.0,95,0.00,,,0.49,0.000000,,2013-07-04 04:33:00,
2013-07-03 23:43:00,72.0,70.0,-100.00,NE,34,5.0,8.0,95,0.00,,,0.49,0.000000,,2013-07-04 04:43:00,
2013-07-03 23:50:00,72.0,71.0,-100.00,NE,41,4.0,8.0,96,0.00,,,0.49,0.000000,,2013-07-04 04:50:00,